Location: Observatory
(49.4490°N, 2.6360°W)
Time: 02:43:06
(UTC+00:00)

BlueWalker 3 - Visible Passes

Search period start: 21 February 2024 00:00
Search period end: 02 March 2024 00:00
Orbit: 486 x 500 km, 53.2° (Epoch: 20 February)

Date Brightness Start Highest point End Pass type
(mag) Time Alt. Az. Time Alt. Az. Time Alt. Az.
21 Feb 2.0 18:15:59 10° SW 18:19:44 67° SSE 18:23:29 10° ENE visible
21 Feb 2.5 19:54:28 10° W 19:58:02 49° NNW 19:58:02 49° NNW visible
22 Feb 2.4 19:30:44 10° W 19:34:25 50° N 19:35:21 39° NE visible
22 Feb 5.1 21:09:24 10° WNW 21:09:50 13° WNW 21:09:50 13° WNW visible
23 Feb 2.4 19:06:58 10° W 19:10:40 51° N 19:12:37 25° NE visible
23 Feb 4.4 20:45:39 10° WNW 20:47:06 21° WNW 20:47:06 21° WNW visible
24 Feb 2.4 18:43:11 10° W 18:46:54 51° N 18:49:51 15° ENE visible
24 Feb 3.4 20:21:53 10° WNW 20:24:20 34° NW 20:24:20 34° NW visible
25 Feb 2.4 18:19:24 10° W 18:23:07 51° N 18:26:49 10° ENE visible
25 Feb 2.4 19:58:06 10° WNW 20:01:32 50° N 20:01:32 50° N visible
26 Feb 2.3 19:34:18 10° WNW 19:38:00 51° N 19:38:44 43° NE visible
26 Feb 5.0 21:12:39 10° WNW 21:13:13 14° WNW 21:13:13 14° WNW visible
27 Feb 2.3 19:10:29 10° WNW 19:14:11 50° N 19:15:56 27° ENE visible
27 Feb 4.2 20:48:51 10° WNW 20:50:25 23° WNW 20:50:25 23° WNW visible
28 Feb 2.3 18:46:39 10° WNW 18:50:21 50° N 18:53:09 16° E visible
28 Feb 3.1 20:25:01 10° WNW 20:27:38 41° W 20:27:38 41° W visible
29 Feb 2.4 18:22:47 10° WNW 18:26:29 49° N 18:30:11 10° E visible
29 Feb 2.0 20:01:10 10° WNW 20:04:52 68° SW 20:04:52 68° SW visible
01 Mar 2.0 19:37:18 10° WNW 19:41:04 70° SSW 19:42:08 43° SE visible
01 Mar 5.1 21:16:31 10° W 21:16:37 10° W 21:16:37 10° W visible
